Farmington, MO

3:34 PM CST on December 09, 2019 (GMT -0600)
Farmington Regional

Weather History for KFAM - October, 2019

Change the Weather History Date:

Saturday, October 12, 2019

  Actual Average Record
Temperature  
Mean Temperature 44 °F -  
Max Temperature 60 °F 67 °F 82 °F (1999)
Min Temperature 28 °F 44 °F 28 °F (2019)
Degree Days  
Heating Degree Days 22    
Moisture  
Dew Point 32 °F    
Average Humidity 65    
Maximum Humidity 100    
Minimum Humidity 31    
Precipitation  
Precipitation 0.00 in - - ()
Sea Level Pressure  
Sea Level Pressure 30.18 in    
Wind  
Wind Speed 4 mph (SSW)    
Max Wind Speed 13 mph    
Max Gust Speed -    
Visibility 10 miles    
Events      
Averages and records for this station are not official NWS values.
T = Trace of Precipitation, MM = Missing Value Source: NWS Daily Summary

Daily Weather History Graph

Daily Weather History Graph

Search for Another Location

Airport or City:

Astronomy

Oct. 12, 2019 Rise Set
Actual Time 7:07 AM CDT 6:28 PM CDT
Civil Twilight 6:40 AM CDT 6:55 PM CDT
Nautical Twilight 6:10 AM CDT 7:25 PM CDT
Astronomical Twilight 5:39 AM CDT 7:55 PM CDT
Moon 6:22 PM CDT (10/12) 5:47 AM CDT (10/12)
Length of Visible Light 12h 14m
Length of Day
11h 21m
Waxing Gibbous, 99% of the Moon is Illuminated
Oct 12
Waxing Gibbous
Oct 13
Full
Oct 21
Last Quarter
Oct 27
New
Nov 4
First Quarter

Hourly Weather History & Observations

Time (CDT) Temp. Windchill Dew Point Humidity Pressure Visibility Wind Dir Wind Speed Gust Speed Precip Events Conditions
12:56 AM 35.1 °F - 34.0 °F 96% 30.27 in 10.0 mi Calm Calm - N/A   Clear
2:56 AM 32.0 °F - 30.9 °F 96% 30.26 in 10.0 mi Calm Calm - N/A   Clear
3:56 AM 32.0 °F - 30.9 °F 96% 30.26 in 10.0 mi Calm Calm - N/A   Clear
4:56 AM 30.9 °F 27.5 °F 30.0 °F 96% 30.27 in 10.0 mi South 3.5 mph - N/A   Clear
5:56 AM 30.0 °F 25.2 °F 28.9 °F 96% 30.27 in 10.0 mi SSE 4.6 mph - N/A   Clear
6:56 AM 28.0 °F - 28.0 °F 100% 30.27 in 10.0 mi Calm Calm - N/A   Clear
7:56 AM 34.0 °F - 33.1 °F 96% 30.27 in 10.0 mi Calm Calm - N/A   Clear
8:56 AM 37.9 °F - 33.1 °F 83% 30.28 in 10.0 mi Calm Calm - N/A   Clear
9:56 AM 45.0 °F 42.6 °F 30.9 °F 58% 30.27 in 10.0 mi Variable 4.6 mph - N/A   Clear
10:56 AM 50.0 °F - 28.9 °F 44% 30.27 in 10.0 mi WSW 8.1 mph - N/A   Clear
11:56 AM 53.1 °F - 25.0 °F 34% 30.24 in 10.0 mi WSW 8.1 mph - N/A   Clear
12:56 PM 55.0 °F - 25.0 °F 31% 30.20 in 10.0 mi Variable 4.6 mph - N/A   Clear
1:56 PM 57.9 °F - 28.9 °F 33% 30.16 in 10.0 mi SSW 10.4 mph - N/A   Clear
2:56 PM 59.0 °F - 30.9 °F 35% 30.13 in 10.0 mi SSW 8.1 mph - N/A   Clear
3:56 PM 59.0 °F - 32.0 °F 36% 30.12 in 10.0 mi South 12.7 mph - N/A   Clear
5:31 PM 57.2 °F - 33.8 °F 41% 30.06 in 10.0 mi SSW 11.5 mph - N/A   Partly Cloudy
5:56 PM 55.9 °F - 34.0 °F 44% 30.09 in 10.0 mi South 10.4 mph - N/A   Clear
6:56 PM 51.1 °F - 33.1 °F 50% 30.09 in 10.0 mi South 6.9 mph - N/A   Clear
7:56 PM 48.9 °F - 34.0 °F 56% 30.09 in 10.0 mi South 9.2 mph - N/A   Clear
8:56 PM 46.9 °F - 35.1 °F 63% 30.08 in 10.0 mi South 10.4 mph - N/A   Clear
9:56 PM 45.0 °F 42.6 °F 35.1 °F 68% 30.08 in 10.0 mi SW 4.6 mph - N/A   Clear
10:56 PM 44.1 °F 40.8 °F 35.1 °F 71% 30.08 in 10.0 mi South 5.8 mph - N/A   Clear
11:56 PM 44.1 °F 42.5 °F 34.0 °F 68% 30.06 in 10.0 mi SSE 3.5 mph - N/A   Clear